STARLINK-33614, 63372

Orbit data source: Space-Track

STARLINK-33614, 63372 is a payload satellite owned by SpaceX/Seattle (US) in LEO that was launched on Wed, 26 Mar 2025 UTC via an FALCON 9 launch vehicle from the Air Force Western Test Range (AFWTR). Payload-class satellites include a variety of spacecraft equipped with specific instruments for various scientific and technological missions. These include communications satellites like Starlink; space stations such as the ISS; scientific satellites like the Hubble; Earth observation satellites from companies like Planet Labs, Umbra, and HawkEye 360; GPS; miniature CubeSats for education and research; and military/defense satellites.

Loading next visibility...
Identifier
63372, 2025-063K
Orbit
LEO
Country
Flag of USUS
Related business
Manufacturer
SpaceX/Seattle
Mission
Operational Commercial Communications
Bus & Motor
STARLINK V2MO, Unknown motor
Mass
575 kg wet, ~530 kg dry
Launch date (UTC)
2025-03-26 (1 year ago)
Launch vehicle
FALCON 9
Launch site
Air Force Western Test Range (AFWTR)
Object type
Payload
Rocket body
Debris
Shape & HBR
Box + 2 Pan, 17.7 m
Radar Cross Section
36.964 m², Large (>1 m²)

Expand to show TLE details & history
Last TLE update: 1 day ago

TLE from 1 day ago
0 STARLINK-33614
1 63372U 25063K   26170.66743381  .00016332  00000-0  49339-3 0  9997
2 63372  53.1611 295.8838 0001270  78.7976 281.3169 15.34402553 70411
Epoch: 2026-06-19T16:01Z
TLE epoch observation values (Epoch: 2026-06-19T16:01:06.281Z)
Latitude
-0.00003°
Longitude
147.71449°
Altitude
463.427 km
Speed
7.636 km/s
True Right ascension
19h 43m 32s
True Declination
0° 00' 00"
Sunlit
Object was in full shadow at epoch
Visualization orbit readout
Latitude
Unknown
Longitude
Unknown
Altitude
Unknown
Speed
Unknown
Apparent Right ascension
Unknown
Apparent Declination
Unknown
Sunlit
N/A
Visualization observer readout
Local Sidereal Time
07:17:19
Azimuth
Unknown
Elevation
Unknown
Doppler factor
Unknown
Orbital elements
Apogee altitude
463.821 km
Perigee altitude
462.084 km
Semi-major axis
6,841.089 km
Eccentricity
0.00013
Inclination
53.1611°
RAAN
295.8838°
Arg. of periapsis
78.7976°
True anomaly
281.30263°
Mean anomaly
281.3169°
Eccentric anomaly
281.30976°
Mean motion
3.83579 °/min
Orbital period
93.85 mins
BSTAR
0.00049339
Loading maneuver chart data...
Computing Atmospheric mass density...
Loading historical data...
Loading historical data...
Loading historical data...
Loading historical data...
Loading historical data...
Loading historical data...
Loading historical data...

Documentation

Showing up to 5 results
|